Dewpoint
61 61 60 60 60 59 59 59 60 60 59 58 57 57 56 55 56 58 57 56 56 55
61 61 60 59 59 59 59 59 60 60 59 58 57 57 56 55 56 57 57 56 56 55
60 60 60 59 59 59 59 59 59 60 59 58 57 57 57 55 56 56 56 57 56 56
60 60 60 59 59 59 58 58 59 59 59 59 57 57 57 56 56 56 56 56 56 56
59 60 60 59 59 59 58 58 58 59 59 58 58 57 57 56 56 56 56 56 56 56
49 58 59 59 58 58 58 57 57 58 58 57 58 57 57 57 56 56 56 56 56 56
43 47 58 57 57 57 57 56 56 56 57 58 58 58 57 57 56 56 56 56 56 56
40 41 45 57 57 57 57 56 56 56 56 57 57 56 57 57 56 55 55 55 55 56
38 38 39 41 52 56 56 56 56 56 56 52 47 46 51 56 56 55 55 54 55 55
35 37 37 36 37 39 41 49 48 47 46 43 40 40 47 50 55 55 54 54 54 54
34 34 35 35 34 33 34 34 34 35 36 36 36 37 43 47 47 44 41 41 42 46
32 32 33 32 33 33 32 32 31 31 31 32 33 36 42 42 39 35 33 33 34 35
30 31 31 32 32 32 32 32 31 30 30 31 31 34 34 34 33 32 30 30 31 32
28 28 29 31 31 32 32 32 31 30 30 30 31 31 33 33 31 30 29 29 29 30
Wind_Speed
22 23 23 22 19 20 21 20 18 19 18 17 16 16 15 13 13 14 15 16 14 13
22 23 23 23 21 19 18 18 20 21 20 18 18 19 18 15 16 15 14 15 15 15
26 27 24 22 22 22 20 20 21 22 21 19 17 17 19 16 15 16 14 14 16 14
21 20 24 25 23 24 21 23 23 22 22 20 21 18 19 19 17 18 17 16 17 18
5 11 21 21 22 21 22 21 23 22 21 20 19 20 20 19 18 20 19 19 19 20
21 10 8 17 17 19 20 19 18 19 19 19 18 18 18 19 19 20 19 19 19 19
23 21 6 9 17 19 19 20 21 19 18 17 17 16 17 18 18 17 16 17 17 16
24 23 22 1 12 17 20 19 18 19 17 16 15 12 15 17 16 16 15 15 16 15
24 25 23 22 12 11 17 18 18 17 15 15 10 6 8 11 13 14 15 15 14 12
27 24 25 22 26 21 20 12 15 14 13 10 7 2 9 8 11 13 11 10 11 10
25 24 21 20 27 22 22 21 19 19 16 10 12 12 6 10 12 12 9 7 5 7
24 23 23 23 24 22 25 23 22 20 22 18 18 19 8 16 16 16 14 14 14 6
23 23 21 17 18 19 24 18 21 21 24 23 20 22 20 15 12 18 16 14 14 18
24 22 21 18 22 21 20 18 15 21 22 25 22 24 23 22 20 13 15 14 16 16
Wind_Direction
218 194 198 196 190 188 191 192 179 182 180 178 179 174 174 201 204 197 193 185 182 176
217 198 198 190 182 181 182 186 176 181 181 180 183 175 176 199 204 199 187 184 176 182
205 200 192 183 183 182 180 172 175 181 181 182 186 178 180 194 201 193 191 189 183 184
217 202 184 185 188 180 178 175 177 181 183 181 192 185 186 188 192 196 195 194 194 197
20 208 193 186 185 178 179 180 175 177 182 185 190 186 187 187 194 197 195 196 199 204
5 2 227 173 178 175 167 172 169 171 178 186 190 185 196 193 195 199 203 202 205 209
1 353 317 182 164 162 164 167 164 165 169 180 181 190 194 190 190 194 196 200 201 200
3 2 11 266 162 155 159 160 163 163 168 171 170 176 189 186 189 192 195 202 204 201
10 15 18 15 5 162 154 158 161 168 162 145 133 152 171 187 186 189 194 199 201 201
20 17 25 23 34 27 29 63 84 86 104 113 98 16 166 185 190 191 196 197 203 195
16 23 27 36 50 28 38 47 47 52 53 51 15 346 170 145 130 115 93 81 76 151
19 18 24 29 44 49 45 46 50 46 44 39 19 16 112 126 122 108 86 66 51 63
7 26 14 20 39 47 58 48 54 43 52 36 36 32 56 67 87 109 100 73 56 49
15 15 14 21 31 36 45 41 41 53 49 51 33 46 57 71 70 62 70 69 71 57